Location: Spring Creek
(38.2870°N, 100.2160°W)
Time: 03:45:27
(UTC+00:00)

BREEZE-M DEB (TANK) - Pass Details

Date: 08 May 2021
Orbit: 323 x 16585 km, 49.3° (Epoch: 21 June)

Event Time Altitude Azimuth Distance (km) Brightness Sun altitude
Exits shadow 10:15:21 23° 262° (W) 1,130 3.4 -14.6°
Maximum altitude 10:17:03 45° 325° (NW) 560 2.3 -14.3°
Drops below altitude 10° 10:19:16 10° 42° (NE) 1,256 5.5 -14.0°
Sets 10:20:53 0° 50° (NE) 2,087 7.3 -13.7°
